EUTELSAT 174A 1 28924U 05052A 26254.79773480 -.00000005 00000+0 00000+0 0 9995 2 28924 4.4324 75.4077 0005937 95.0003 281.5614 1.00272399053205 EUTELSAT 33F 1 29270U 06032A 26255.15827442 .00000141 00000+0 00000+0 0 9998 2 29270 1.8804 81.1512 0003314 90.1992 269.8930 1.00274041048178 EUTELSAT HOTBIRD 13C 1 33459U 08065A 26255.07048072 -.00000296 00000+0 00000+0 0 9997 2 33459 3.1680 78.0919 0003567 100.2872 147.7917 1.00271073048211 EUTELSAT 36B 1 36101U 09065A 26255.16165446 .00000098 00000+0 00000+0 0 9999 2 36101 0.7047 81.1747 0005726 87.1215 291.5791 1.00269708061580 EUTELSAT KA-SAT 9A 1 37258U 10069A 26255.15342108 .00000047 00000+0 00000+0 0 9994 2 37258 0.0740 352.4093 0005432 181.1661 241.8272 1.00272626044877 EUTELSAT 7 WEST A 1 37816U 11051A 26255.15021440 -.00000075 00000+0 00000+0 0 9991 2 37816 0.0636 348.2766 0005982 184.9456 224.6964 1.00271764054740 EUTELSAT 16A 1 37836U 11057A 26255.15480773 .00000089 00000+0 00000+0 0 9991 2 37836 0.0871 61.4662 0005559 106.8567 254.5864 1.00269970008205 EUTELSAT 21B 1 38992U 12062B 26255.15593441 .00000115 00000+0 00000+0 0 9999 2 38992 0.0698 345.8953 0003070 175.7872 267.2364 1.00269574050694 EUTELSAT 70B 1 39020U 12069A 26255.14747360 -.00000059 00000+0 00000+0 0 9997 2 39020 0.0654 1.2202 0003672 171.2698 302.2602 1.00272202050387 EUTELSAT 117 WEST A 1 39122U 13012A 26255.12854764 -.00000028 00000+0 00000+0 0 9990 2 39122 0.0458 310.7223 0002826 223.1895 106.7094 1.00272480049309 EUTELSAT 7B 1 39163U 13022A 26255.15480773 .00000109 00000+0 00000+0 0 9993 2 39163 0.0695 339.3013 0002153 37.1158 46.2755 1.00455773048814 EXPRESS-AT1 1 39612U 14010A 26255.18358435 -.00000109 00000+0 00000+0 0 9993 2 39612 0.4762 84.6027 0004852 81.6859 325.7187 1.00314873045699 EXPRESS-AT2 1 39613U 14010B 26255.16278111 .00000063 00000+0 00000+0 0 9992 2 39613 0.0203 244.1044 0000721 45.1079 176.5623 1.00273711045375 EUTELSAT 3B 1 39773U 14030A 26255.15229441 .00000005 00000+0 00000+0 0 9998 2 39773 0.0667 358.5176 0004095 171.6767 238.8854 1.00272532044938 EUTELSAT 115 WEST B 1 40425U 15010B 26255.12898095 -.00000040 00000+0 00000+0 0 9997 2 40425 0.0396 3.9082 0000207 74.4716 204.3030 1.00272813042254 EUTELSAT 8 WEST B 1 40875U 15039B 26255.15012772 -.00000080 00000+0 00000+0 0 9994 2 40875 0.0672 346.7834 0003655 182.6631 227.8042 1.00270774040526 EUTELSAT 9B 1 41310U 16005A 26255.15350773 .00000047 00000+0 00000+0 0 9991 2 41310 0.0517 70.2204 0002419 138.4427 206.7553 1.00272814038985 EUTELSAT 65 WEST A 1 41382U 16014A 26255.13877433 -.00000291 00000+0 00000+0 0 9997 2 41382 0.0762 311.6788 0002191 214.4726 169.7639 1.00273169038391 EUTELSAT 117 WEST B 1 41589U 16038B 26255.12854764 -.00000027 00000+0 00000+0 0 9990 2 41589 0.0347 18.7297 0000092 162.8400 98.8453 1.00271804037537 EUTELSAT 172B 1 42741U 17029B 26255.11450757 -.00000021 00000+0 00000+0 0 9999 2 42741 0.0235 141.2316 0000103 258.7177 164.4062 1.00271605034629 EUTELSAT 7C 1 44334U 19034B 26255.15307441 .00000033 00000+0 00000+0 0 9994 2 44334 0.0702 178.8951 0003142 337.3168 257.0443 1.00271245007700 EUTELSAT 5 WEST B 1 44624U 19067A 26255.15073440 -.00000057 00000+0 00000+0 0 9998 2 44624 0.0807 320.6569 0003121 210.2096 229.5591 1.00271386025294 EUTELSAT KONNECT 1 45027U 20005B 26255.15307441 .00000034 00000+0 00000+0 0 9995 2 45027 0.0657 99.5241 0001080 79.1460 234.7933 1.00268472025204 EUTELSAT QUANTUM 1 49056U 21069B 26255.16113446 .00000111 00000+0 00000+0 0 9999 2 49056 0.0183 73.4223 0002227 101.4136 282.0414 1.00272070018805 EUTELSAT KONNECT VHTS 1 53765U 22110A 26255.15220772 .00000003 00000+0 00000+0 0 9999 2 53765 0.0549 105.2920 0003086 39.4767 263.9029 1.00274845007704 EUTELSAT HOTBIRD 13F 1 54048U 22134A 26255.15428773 .00000072 00000+0 00000+0 0 9997 2 54048 0.0639 293.3256 0001954 68.2735 58.1071 1.00271390014247 EUTELSAT HOTBIRD 13G 1 54225U 22146A 26255.08296078 .00000072 00000+0 00000+0 0 9990 2 54225 0.0499 232.7421 0002108 307.3834 213.8287 1.00271821008339 EUTELSAT 10B 1 54259U 22157A 26255.15368109 .00000053 00000+0 00000+0 0 9991 2 54259 0.0554 102.8075 0001688 3.1902 310.5036 1.00270142013898 EUTELSAT 36D 1 59346U 24059A 26255.15879442 .00000141 00000+0 00000+0 0 9991 2 59346 0.0019 186.2013 0000122 158.7178 99.2930 1.00270314009012